| time (UTC) | temp F | wind direction | speed MPH | gust MPH | rain 1hr in | rain 24hr in | rain mn in | humidity % | barometer mb |
| 20260831230243 | 78 | 292 | 3.0 | 4.0 | 0.00 | 0.11 | 0.00 | 75 | 1015.3 |
| 20260831230051 | 78 | 270 | 3.0 | 6.0 | 0.00 | 0.11 | 0.00 | 76 | 1015.1 |
| 20260831225643 | 78 | 270 | 3.0 | 4.0 | 0.00 | 0.11 | 0.00 | 76 | 1015.0 |
| 20260831225444 | 78 | 292 | 2.0 | 4.0 | 0.00 | 0.11 | 0.00 | 76 | 1015.3 |
| 20260831225243 | 79 | 292 | 2.0 | 4.0 | 0.00 | 0.11 | 0.00 | 76 | 1015.1 |
| 20260831225048 | 79 | 270 | 2.0 | 4.0 | 0.00 | 0.11 | 0.00 | 76 | 1015.0 |
| 20260831224844 | 79 | 292 | 2.0 | 4.0 | 0.00 | 0.11 | 0.00 | 76 | 1015.2 |
| 20260831224642 | 79 | 270 | 2.0 | 4.0 | 0.00 | 0.11 | 0.00 | 76 | 1015.0 |
| 20260831224442 | 79 | 292 | 2.0 | 4.0 | 0.00 | 0.11 | 0.00 | 75 | 1015.2 |
| 20260831224242 | 79 | 292 | 2.0 | 2.0 | 0.00 | 0.11 | 0.00 | 75 | 1015.0 |
| 20260831224054 | 79 | 270 | 2.0 | 4.0 | 0.00 | 0.11 | 0.00 | 75 | 1014.8 |
| 20260831223643 | 79 | 270 | 3.0 | 4.0 | 0.00 | 0.11 | 0.00 | 75 | 1014.8 |
| 20260831223443 | 79 | 270 | 2.0 | 4.0 | 0.00 | 0.11 | 0.00 | 75 | 1014.9 |
| 20260831223242 | 79 | 270 | 2.0 | 2.0 | 0.00 | 0.11 | 0.00 | 75 | 1015.0 |
| 20260831222843 | 80 | 270 | 2.0 | 4.0 | 0.00 | 0.11 | 0.00 | 75 | 1015.1 |
| 20260831222643 | 80 | 270 | 3.0 | 4.0 | 0.00 | 0.11 | 0.00 | 75 | 1015.2 |
| 20260831222243 | 80 | 270 | 2.0 | 4.0 | 0.00 | 0.11 | 0.00 | 75 | 1015.1 |
| 20260831222047 | 80 | 270 | 2.0 | 4.0 | 0.00 | 0.11 | 0.00 | 75 | 1015.0 |
| 20260831221842 | 80 | 270 | 2.0 | 4.0 | 0.00 | 0.11 | 0.00 | 75 | 1015.1 |
| 20260831221641 | 80 | 270 | 3.0 | 4.0 | 0.00 | 0.11 | 0.00 | 75 | 1015.1 |
| 20260831221242 | 80 | 248 | 3.0 | 4.0 | 0.00 | 0.11 | 0.00 | 75 | 1015.3 |
| 20260831221053 | 80 | 270 | 4.0 | 4.0 | 0.00 | 0.11 | 0.00 | 75 | 1014.9 |
| 20260831220843 | 80 | 248 | 4.0 | 6.0 | 0.00 | 0.11 | 0.00 | 75 | 1015.0 |
| 20260831220642 | 80 | 248 | 4.0 | 7.0 | 0.00 | 0.11 | 0.00 | 75 | 1015.1 |
| 20260831220442 | 80 | 270 | 4.0 | 7.0 | 0.00 | 0.11 | 0.00 | 75 | 1015.2 |
| 20260831220242 | 80 | 270 | 4.0 | 7.0 | 0.00 | 0.11 | 0.11 | 74 | 1015.0 |
| 20260831220107 | 80 | 248 | 4.0 | 6.0 | 0.00 | 0.11 | 0.11 | 74 | 1015.1 |
| 20260831215844 | 80 | 270 | 4.0 | 6.0 | 0.00 | 0.11 | 0.11 | 74 | 1015.0 |
| 20260831215644 | 80 | 270 | 4.0 | 6.0 | 0.00 | 0.11 | 0.11 | 74 | 1014.9 |
| 20260831215442 | 81 | 248 | 3.0 | 4.0 | 0.00 | 0.11 | 0.11 | 73 | 1014.9 |
| 20260831215243 | 81 | 270 | 4.0 | 6.0 | 0.00 | 0.11 | 0.11 | 73 | 1015.1 |
| 20260831215048 | 81 | 248 | 3.0 | 4.0 | 0.00 | 0.11 | 0.11 | 72 | 1015.0 |
| 20260831214643 | 81 | 248 | 3.0 | 4.0 | 0.00 | 0.11 | 0.11 | 72 | 1014.8 |
| 20260831214442 | 80 | 270 | 4.0 | 6.0 | 0.00 | 0.11 | 0.11 | 72 | 1014.9 |
| 20260831214243 | 80 | 270 | 2.0 | 4.0 | 0.00 | 0.11 | 0.11 | 73 | 1014.9 |
| 20260831214054 | 80 | 270 | 2.0 | 4.0 | 0.00 | 0.11 | 0.11 | 73 | 1015.1 |
| 20260831213842 | 80 | 248 | 2.0 | 4.0 | 0.00 | 0.11 | 0.11 | 73 | 1014.9 |
| 20260831213642 | 80 | 270 | 3.0 | 4.0 | 0.00 | 0.11 | 0.11 | 73 | 1015.0 |
| 20260831213442 | 81 | 292 | 3.0 | 4.0 | 0.00 | 0.11 | 0.11 | 73 | 1015.0 |
| 20260831213242 | 81 | 315 | 3.0 | 4.0 | 0.00 | 0.11 | 0.11 | 73 | 1015.0 |
| 20260831212842 | 81 | 292 | 4.0 | 4.0 | 0.00 | 0.11 | 0.11 | 73 | 1014.8 |
| 20260831212643 | 81 | 270 | 4.0 | 6.0 | 0.00 | 0.11 | 0.11 | 73 | 1014.9 |
| 20260831212443 | 80 | 270 | 3.0 | 4.0 | 0.00 | 0.11 | 0.11 | 73 | 1014.8 |
| 20260831212242 | 80 | 248 | 2.0 | 4.0 | 0.00 | 0.11 | 0.11 | 74 | 1014.9 |
| 20260831212047 | 80 | 248 | 2.0 | 2.0 | 0.00 | 0.11 | 0.11 | 74 | 1014.8 |
| 20260831211842 | 80 | 292 | 3.0 | 4.0 | 0.00 | 0.11 | 0.11 | 74 | 1014.7 |
| 20260831211641 | 80 | 270 | 4.0 | 4.0 | 0.00 | 0.11 | 0.11 | 74 | 1014.9 |
| 20260831211242 | 80 | 292 | 4.0 | 6.0 | 0.00 | 0.11 | 0.11 | 74 | 1014.8 |
| 20260831211058 | 81 | 292 | 4.0 | 6.0 | 0.00 | 0.11 | 0.11 | 74 | 1014.8 |
| 20260831210843 | 81 | 338 | 4.0 | 4.0 | 0.00 | 0.11 | 0.11 | 74 | 1014.6 |
| 20260831210443 | 81 | 315 | 4.0 | 6.0 | 0.00 | 0.11 | 0.11 | 74 | 1014.6 |
| 20260831210242 | 81 | 315 | 2.0 | 4.0 | 0.00 | 0.11 | 0.11 | 73 | 1014.6 |
| 20260831205842 | 81 | 292 | 5.0 | 8.0 | 0.00 | 0.11 | 0.11 | 74 | 1014.6 |
| 20260831205641 | 81 | 292 | 4.0 | 7.0 | 0.00 | 0.11 | 0.11 | 75 | 1014.7 |
| 20260831205443 | 80 | 315 | 4.0 | 7.0 | 0.00 | 0.11 | 0.11 | 75 | 1014.6 |
| 20260831205046 | 81 | 292 | 3.0 | 4.0 | 0.00 | 0.11 | 0.11 | 75 | 1014.5 |
| 20260831204842 | 80 | 315 | 4.0 | 6.0 | 0.00 | 0.11 | 0.11 | 75 | 1014.6 |
| 20260831204643 | 80 | 292 | 3.0 | 4.0 | 0.00 | 0.11 | 0.11 | 75 | 1014.6 |
| 20260831204442 | 80 | 270 | 4.0 | 4.0 | 0.00 | 0.11 | 0.11 | 75 | 1014.6 |
| 20260831204243 | 80 | 292 | 3.0 | 4.0 | 0.00 | 0.11 | 0.11 | 75 | 1014.6 |
| 20260831204048 | 80 | 292 | 4.0 | 6.0 | 0.00 | 0.11 | 0.11 | 75 | 1014.5 |
| 20260831203842 | 80 | 270 | 2.0 | 4.0 | 0.00 | 0.11 | 0.11 | 75 | 1014.5 |
| 20260831203641 | 80 | 292 | 2.0 | 4.0 | 0.00 | 0.11 | 0.11 | 76 | 1014.5 |
| 20260831203445 | 80 | 292 | 2.0 | 2.0 | 0.00 | 0.11 | 0.11 | 76 | 1014.5 |
| 20260831203242 | 80 | 292 | 2.0 | 4.0 | 0.00 | 0.11 | 0.11 | 77 | 1014.5 |
| 20260831203051 | 79 | 292 | 3.0 | 4.0 | 0.00 | 0.11 | 0.11 | 77 | 1014.6 |
| 20260831202841 | 79 | 292 | 2.0 | 4.0 | 0.00 | 0.11 | 0.11 | 78 | 1014.7 |
| 20260831202642 | 79 | 292 | 2.0 | 4.0 | 0.00 | 0.11 | 0.11 | 79 | 1014.6 |
| 20260831202443 | 79 | 292 | 2.0 | 2.0 | 0.00 | 0.11 | 0.11 | 79 | 1014.6 |
| 20260831202243 | 79 | 292 | 2.0 | 2.0 | 0.00 | 0.11 | 0.11 | 80 | 1014.7 |
| 20260831202047 | 79 | 292 | 1.0 | 2.0 | 0.00 | 0.11 | 0.11 | 81 | 1014.7 |
| 20260831201843 | 79 | 292 | 0.0 | 0.0 | 0.00 | 0.11 | 0.11 | 81 | 1014.5 |
| 20260831201642 | 78 | 292 | 0.0 | 0.0 | 0.00 | 0.11 | 0.11 | 82 | 1014.5 |
| 20260831201442 | 78 | 292 | 0.0 | 0.0 | 0.00 | 0.11 | 0.11 | 83 | 1014.6 |
| 20260831201244 | 78 | 270 | 0.0 | 0.0 | 0.00 | 0.11 | 0.11 | 84 | 1014.5 |
| 20260831201053 | 78 | 270 | 0.0 | 0.0 | 0.00 | 0.11 | 0.11 | 86 | 1014.6 |
| 20260831200442 | 78 | 270 | 0.0 | 0.0 | 0.00 | 0.11 | 0.11 | 89 | 1014.5 |
| 20260831200244 | 78 | 292 | 0.0 | 0.0 | 0.00 | 0.11 | 0.11 | 89 | 1014.5 |
| 20260831200051 | 78 | 292 | 0.0 | 0.0 | 0.00 | 0.11 | 0.11 | 89 | 1014.3 |
| 20260831195842 | 78 | 292 | 0.0 | 0.0 | 0.00 | 0.11 | 0.11 | 89 | 1014.4 |
| 20260831195650 | 78 | 292 | 0.0 | 0.0 | 0.00 | 0.11 | 0.11 | 90 | 1014.4 |
| 20260831195243 | 78 | 270 | 0.0 | 0.0 | 0.00 | 0.11 | 0.11 | 90 | 1014.3 |
| 20260831195047 | 78 | 270 | 0.0 | 0.0 | 0.00 | 0.11 | 0.11 | 90 | 1014.4 |
| 20260831194843 | 78 | 315 | 0.0 | 0.0 | 0.00 | 0.11 | 0.11 | 90 | 1014.5 |
| 20260831194644 | 78 | 315 | 0.0 | 0.0 | 0.00 | 0.11 | 0.11 | 90 | 1014.5 |
| 20260831194443 | 78 | 292 | 0.0 | 0.0 | 0.00 | 0.11 | 0.11 | 90 | 1014.5 |
| 20260831194243 | 78 | 292 | 0.0 | 0.0 | 0.00 | 0.11 | 0.11 | 90 | 1014.3 |
| 20260831194049 | 78 | 270 | 0.0 | 0.0 | 0.00 | 0.11 | 0.11 | 90 | 1014.2 |
| 20260831193842 | 78 | 270 | 0.0 | 0.0 | 0.00 | 0.11 | 0.11 | 90 | 1014.3 |
| 20260831193642 | 78 | 270 | 0.0 | 0.0 | 0.00 | 0.11 | 0.11 | 90 | 1014.3 |
| 20260831193243 | 79 | 292 | 0.0 | 0.0 | 0.00 | 0.11 | 0.11 | 90 | 1014.5 |
| 20260831193049 | 79 | 338 | 0.0 | 0.0 | 0.00 | 0.11 | 0.11 | 90 | 1014.6 |
| 20260831192842 | 79 | 68 | 0.0 | 2.0 | 0.00 | 0.11 | 0.11 | 90 | 1014.5 |
| 20260831192242 | 79 | 315 | 0.0 | 0.0 | 0.00 | 0.11 | 0.11 | 90 | 1014.2 |
| 20260831192048 | 80 | 292 | 0.0 | 0.0 | 0.00 | 0.11 | 0.11 | 90 | 1014.4 |
| 20260831191843 | 79 | 292 | 0.0 | 0.0 | 0.00 | 0.11 | 0.11 | 90 | 1014.2 |
| 20260831191645 | 79 | 292 | 0.0 | 0.0 | 0.00 | 0.11 | 0.11 | 90 | 1014.2 |
| 20260831191444 | 80 | 315 | 1.0 | 2.0 | 0.00 | 0.11 | 0.11 | 90 | 1014.2 |
| 20260831191259 | 80 | 292 | 0.0 | 0.0 | 0.00 | 0.11 | 0.11 | 90 | 1014.3 |
| 20260831191052 | 80 | 292 | 0.0 | 0.0 | 0.00 | 0.11 | 0.11 | 90 | 1014.2 |
| 20260831190842 | 80 | 292 | 0.0 | 0.0 | 0.00 | 0.11 | 0.11 | 90 | 1014.2 |
| 20260831190644 | 80 | 292 | 0.0 | 0.0 | 0.00 | 0.11 | 0.11 | 90 | 1014.1 |
| 20260831190444 | 80 | 338 | 0.0 | 0.0 | 0.00 | 0.11 | 0.11 | 90 | 1014.1 |
| 20260831190243 | 80 | 270 | 0.0 | 0.0 | 0.00 | 0.11 | 0.11 | 90 | 1014.0 |
| 20260831190052 | 80 | 270 | 0.0 | 0.0 | 0.00 | 0.11 | 0.11 | 90 | 1013.9 |
| 20260831185843 | 80 | 292 | 0.0 | 0.0 | 0.00 | 0.11 | 0.11 | 89 | 1014.0 |
| 20260831185643 | 80 | 292 | 0.0 | 0.0 | 0.00 | 0.11 | 0.11 | 89 | 1014.1 |
| 20260831185442 | 80 | 292 | 0.0 | 0.0 | 0.00 | 0.11 | 0.11 | 89 | 1014.0 |
| 20260831185244 | 80 | 292 | 0.0 | 0.0 | 0.00 | 0.11 | 0.11 | 89 | 1013.9 |
| 20260831185045 | 80 | 292 | 0.0 | 0.0 | 0.00 | 0.11 | 0.11 | 89 | 1014.1 |
| 20260831184843 | 80 | 315 | 0.0 | 0.0 | 0.00 | 0.11 | 0.11 | 89 | 1014.1 |
| 20260831184644 | 80 | 315 | 0.0 | 0.0 | 0.00 | 0.11 | 0.11 | 89 | 1013.9 |
| 20260831184444 | 80 | 292 | 0.0 | 0.0 | 0.00 | 0.11 | 0.11 | 89 | 1013.9 |
| 20260831184243 | 80 | 292 | 0.0 | 0.0 | 0.00 | 0.11 | 0.11 | 89 | 1014.1 |
| 20260831184047 | 80 | 292 | 0.0 | 0.0 | 0.00 | 0.11 | 0.11 | 89 | 1014.0 |
| 20260831183843 | 80 | 315 | 0.0 | 0.0 | 0.00 | 0.11 | 0.11 | 89 | 1014.1 |
| 20260831183644 | 79 | 338 | 0.0 | 0.0 | 0.00 | 0.11 | 0.11 | 89 | 1014.1 |
| 20260831183443 | 79 | 338 | 0.0 | 0.0 | 0.00 | 0.11 | 0.11 | 89 | 1013.9 |
| 20260831183242 | 79 | 292 | 0.0 | 0.0 | 0.00 | 0.11 | 0.11 | 89 | 1013.8 |
| 20260831183047 | 80 | 338 | 1.0 | 2.0 | 0.00 | 0.11 | 0.11 | 90 | 1013.9 |
| 20260831182842 | 80 | 315 | 1.0 | 2.0 | 0.00 | 0.11 | 0.11 | 90 | 1013.8 |
| 20260831182643 | 80 | 315 | 1.0 | 2.0 | 0.00 | 0.11 | 0.11 | 90 | 1013.9 |
| 20260831182443 | 80 | 315 | 0.0 | 0.0 | 0.00 | 0.11 | 0.11 | 90 | 1013.9 |
| 20260831182046 | 80 | 338 | 0.0 | 0.0 | 0.00 | 0.11 | 0.11 | 90 | 1013.7 |
| 20260831181843 | 80 | 22 | 0.0 | 2.0 | 0.00 | 0.11 | 0.11 | 90 | 1013.7 |
| 20260831181642 | 80 | 0 | 0.0 | 0.0 | 0.00 | 0.11 | 0.11 | 90 | 1013.6 |
| 20260831181443 | 80 | 315 | 0.0 | 2.0 | 0.00 | 0.11 | 0.11 | 90 | 1013.6 |
| 20260831181242 | 80 | 338 | 1.0 | 2.0 | 0.00 | 0.11 | 0.11 | 90 | 1013.7 |
| 20260831181049 | 80 | 315 | 0.0 | 2.0 | 0.00 | 0.11 | 0.11 | 90 | 1013.6 |
| 20260831180642 | 80 | 315 | 0.0 | 0.0 | 0.00 | 0.11 | 0.11 | 90 | 1013.6 |
| 20260831180443 | 80 | 0 | 0.0 | 2.0 | 0.00 | 0.11 | 0.11 | 91 | 1013.5 |
| 20260831180243 | 80 | 315 | 1.0 | 2.0 | 0.00 | 0.11 | 0.11 | 91 | 1013.5 |
| 20260831180051 | 80 | 45 | 2.0 | 4.0 | 0.00 | 0.11 | 0.11 | 91 | 1013.5 |
| 20260831175842 | 79 | 338 | 1.0 | 2.0 | 0.00 | 0.11 | 0.11 | 91 | 1013.5 |
| 20260831175642 | 79 | 338 | 0.0 | 2.0 | 0.00 | 0.11 | 0.11 | 91 | 1013.5 |
| 20260831175443 | 79 | 338 | 0.0 | 2.0 | 0.00 | 0.11 | 0.11 | 91 | 1013.8 |
| 20260831175243 | 79 | 0 | 0.0 | 2.0 | 0.00 | 0.11 | 0.11 | 91 | 1013.5 |
| 20260831175046 | 79 | 45 | 2.0 | 4.0 | 0.00 | 0.11 | 0.11 | 91 | 1013.7 |
| 20260831174844 | 80 | 45 | 2.0 | 2.0 | 0.00 | 0.11 | 0.11 | 91 | 1013.5 |
| 20260831174443 | 80 | 68 | 2.0 | 2.0 | 0.00 | 0.11 | 0.11 | 91 | 1013.4 |
| 20260831174243 | 80 | 68 | 2.0 | 4.0 | 0.00 | 0.11 | 0.11 | 91 | 1013.5 |
| 20260831174052 | 80 | 90 | 1.0 | 2.0 | 0.00 | 0.11 | 0.11 | 91 | 1013.6 |
| 20260831173842 | 80 | 90 | 1.0 | 2.0 | 0.00 | 0.11 | 0.11 | 91 | 1013.6 |
| 20260831173642 | 80 | 90 | 2.0 | 2.0 | 0.00 | 0.11 | 0.11 | 91 | 1013.7 |
| 20260831173443 | 80 | 68 | 0.0 | 0.0 | 0.00 | 0.11 | 0.11 | 92 | 1013.6 |
| 20260831173242 | 80 | 68 | 0.0 | 0.0 | 0.00 | 0.11 | 0.11 | 91 | 1013.6 |
| 20260831173048 | 79 | 270 | 0.0 | 0.0 | 0.01 | 0.11 | 0.11 | 92 | 1013.5 |
| 20260831172842 | 79 | 270 | 0.0 | 2.0 | 0.03 | 0.11 | 0.11 | 91 | 1013.2 |
| 20260831172642 | 79 | 248 | 0.0 | 0.0 | 0.07 | 0.11 | 0.11 | 91 | 1013.5 |
| 20260831172444 | 79 | 270 | 1.0 | 2.0 | 0.11 | 0.11 | 0.11 | 91 | 1013.6 |
| 20260831172243 | 79 | 292 | 1.0 | 2.0 | 0.11 | 0.11 | 0.11 | 92 | 1013.5 |
| 20260831172046 | 79 | 315 | 1.0 | 2.0 | 0.11 | 0.11 | 0.11 | 92 | 1013.4 |
| 20260831171842 | 80 | 315 | 0.0 | 2.0 | 0.11 | 0.11 | 0.11 | 92 | 1013.4 |
| 20260831171644 | 79 | 315 | 0.0 | 0.0 | 0.11 | 0.11 | 0.11 | 92 | 1013.6 |
| 20260831171442 | 79 | 292 | 0.0 | 2.0 | 0.11 | 0.11 | 0.11 | 92 | 1013.7 |
| 20260831171244 | 79 | 292 | 2.0 | 2.0 | 0.11 | 0.11 | 0.11 | 91 | 1013.8 |
| 20260831171052 | 79 | 292 | 1.0 | 2.0 | 0.11 | 0.11 | 0.11 | 91 | 1013.7 |
| 20260831170842 | 79 | 292 | 2.0 | 4.0 | 0.11 | 0.11 | 0.11 | 91 | 1013.7 |
| 20260831170642 | 79 | 292 | 2.0 | 2.0 | 0.11 | 0.11 | 0.11 | 91 | 1013.6 |
| 20260831170051 | 79 | 270 | 0.0 | 0.0 | 0.11 | 0.11 | 0.11 | 91 | 1013.5 |
| 20260831165842 | 79 | 45 | 2.0 | 2.0 | 0.11 | 0.11 | 0.11 | 90 | 1013.5 |
| 20260831165644 | 79 | 45 | 2.0 | 4.0 | 0.11 | 0.11 | 0.11 | 90 | 1013.5 |
| 20260831165443 | 79 | 22 | 2.0 | 4.0 | 0.11 | 0.11 | 0.11 | 90 | 1013.4 |
| 20260831165241 | 79 | 45 | 2.0 | 2.0 | 0.11 | 0.11 | 0.11 | 89 | 1013.2 |
| 20260831165046 | 79 | 68 | 2.0 | 4.0 | 0.11 | 0.11 | 0.11 | 89 | 1013.4 |
| 20260831164448 | 80 | 292 | 1.0 | 2.0 | 0.11 | 0.11 | 0.11 | 88 | 1013.5 |
| 20260831164050 | 80 | 315 | 2.0 | 4.0 | 0.11 | 0.11 | 0.11 | 87 | 1013.4 |
| 20260831163843 | 80 | 292 | 3.0 | 4.0 | 0.11 | 0.11 | 0.11 | 87 | 1013.6 |
| 20260831163643 | 80 | 292 | 2.0 | 4.0 | 0.11 | 0.11 | 0.11 | 86 | 1013.4 |
| 20260831163443 | 80 | 292 | 4.0 | 7.0 | 0.11 | 0.11 | 0.11 | 85 | 1013.6 |
| 20260831163243 | 80 | 292 | 4.0 | 6.0 | 0.10 | 0.10 | 0.10 | 84 | 1013.6 |
| 20260831163051 | 82 | 270 | 7.0 | 13.0 | 0.08 | 0.08 | 0.08 | 82 | 1013.7 |
| 20260831162843 | 84 | 0 | 7.0 | 13.0 | 0.04 | 0.04 | 0.04 | 79 | 1013.9 |
| 20260831162643 | 85 | 292 | 7.0 | 9.0 | 0.00 | 0.00 | 0.00 | 73 | 1013.8 |
| 20260831162442 | 85 | 338 | 5.0 | 9.0 | 0.00 | 0.00 | 0.00 | 71 | 1013.9 |
| 20260831162243 | 87 | 315 | 6.0 | 11.0 | 0.00 | 0.00 | 0.00 | 68 | 1014.1 |
| 20260831162046 | 87 | 315 | 3.0 | 7.0 | 0.00 | 0.00 | 0.00 | 66 | 1014.3 |
| 20260831161642 | 87 | 270 | 2.0 | 4.0 | 0.00 | 0.00 | 0.00 | 67 | 1014.1 |
| 20260831161442 | 87 | 248 | 2.0 | 2.0 | 0.00 | 0.00 | 0.00 | 66 | 1013.6 |
| 20260831161243 | 87 | 270 | 1.0 | 2.0 | 0.00 | 0.00 | 0.00 | 66 | 1013.6 |
| 20260831160842 | 87 | 248 | 2.0 | 2.0 | 0.00 | 0.00 | 0.00 | 66 | 1013.6 |
| 20260831160642 | 87 | 225 | 3.0 | 4.0 | 0.00 | 0.00 | 0.00 | 66 | 1013.4 |
| 20260831160442 | 87 | 225 | 3.0 | 4.0 | 0.00 | 0.00 | 0.00 | 66 | 1013.3 |
| 20260831160243 | 87 | 248 | 4.0 | 6.0 | 0.00 | 0.00 | 0.00 | 66 | 1013.4 |
| 20260831160050 | 87 | 248 | 4.0 | 6.0 | 0.00 | 0.00 | 0.00 | 66 | 1013.4 |
| 20260831155842 | 87 | 225 | 1.0 | 2.0 | 0.00 | 0.00 | 0.00 | 66 | 1013.3 |
| 20260831155643 | 87 | 180 | 3.0 | 4.0 | 0.00 | 0.00 | 0.00 | 66 | 1013.4 |
| 20260831155442 | 87 | 225 | 5.0 | 8.0 | 0.00 | 0.00 | 0.00 | 66 | 1013.4 |
| 20260831155242 | 87 | 225 | 7.0 | 8.0 | 0.00 | 0.00 | 0.00 | 66 | 1013.1 |
| 20260831155045 | 87 | 180 | 2.0 | 4.0 | 0.00 | 0.00 | 0.00 | 66 | 1013.3 |
| 20260831154643 | 87 | 225 | 4.0 | 9.0 | 0.00 | 0.00 | 0.00 | 66 | 1013.3 |
| 20260831154442 | 87 | 202 | 3.0 | 6.0 | 0.00 | 0.00 | 0.00 | 66 | 1013.0 |
| 20260831154242 | 87 | 202 | 2.0 | 4.0 | 0.00 | 0.00 | 0.00 | 66 | 1013.2 |
| 20260831153842 | 88 | 202 | 4.0 | 6.0 | 0.00 | 0.00 | 0.00 | 66 | 1013.1 |
| 20260831153642 | 88 | 158 | 3.0 | 4.0 | 0.00 | 0.00 | 0.00 | 66 | 1013.2 |
| 20260831153442 | 88 | 225 | 2.0 | 2.0 | 0.00 | 0.00 | 0.00 | 67 | 1013.1 |
| 20260831153241 | 88 | 270 | 2.0 | 4.0 | 0.00 | 0.00 | 0.00 | 67 | 1012.9 |
| 20260831153048 | 88 | 180 | 3.0 | 4.0 | 0.00 | 0.00 | 0.00 | 67 | 1013.3 |
| 20260831152841 | 88 | 248 | 2.0 | 4.0 | 0.00 | 0.00 | 0.00 | 67 | 1013.2 |
| 20260831152643 | 88 | 158 | 3.0 | 4.0 | 0.00 | 0.00 | 0.00 | 66 | 1013.2 |
| 20260831152241 | 88 | 68 | 4.0 | 7.0 | 0.00 | 0.00 | 0.00 | 66 | 1013.2 |
| 20260831152047 | 88 | 158 | 4.0 | 7.0 | 0.00 | 0.00 | 0.00 | 65 | 1013.4 |
| 20260831151843 | 88 | 135 | 4.0 | 6.0 | 0.00 | 0.00 | 0.00 | 65 | 1013.3 |
| 20260831151641 | 88 | 202 | 4.0 | 8.0 | 0.00 | 0.00 | 0.00 | 65 | 1013.3 |
| 20260831151442 | 88 | 180 | 3.0 | 7.0 | 0.00 | 0.00 | 0.00 | 65 | 1013.2 |
| 20260831151241 | 88 | 180 | 4.0 | 7.0 | 0.00 | 0.00 | 0.00 | 65 | 1013.2 |
| 20260831150843 | 89 | 180 | 4.0 | 7.0 | 0.00 | 0.00 | 0.00 | 64 | 1013.1 |
| 20260831150442 | 89 | 158 | 5.0 | 7.0 | 0.00 | 0.00 | 0.00 | 64 | 1013.0 |
| 20260831150242 | 89 | 158 | 6.0 | 8.0 | 0.00 | 0.00 | 0.00 | 64 | 1013.2 |
| 20260831150052 | 89 | 225 | 4.0 | 6.0 | 0.00 | 0.00 | 0.00 | 64 | 1013.0 |
| 20260831145843 | 90 | 202 | 4.0 | 7.0 | 0.00 | 0.00 | 0.00 | 64 | 1013.0 |
| 20260831145641 | 90 | 202 | 4.0 | 7.0 | 0.00 | 0.00 | 0.00 | 63 | 1013.1 |
| 20260831145443 | 90 | 135 | 4.0 | 8.0 | 0.00 | 0.00 | 0.00 | 62 | 1013.1 |
| 20260831145242 | 91 | 135 | 4.0 | 8.0 | 0.00 | 0.00 | 0.00 | 61 | 1013.2 |
| 20260831145046 | 91 | 248 | 6.0 | 8.0 | 0.00 | 0.00 | 0.00 | 60 | 1013.0 |
| 20260831144841 | 91 | 135 | 4.0 | 6.0 | 0.00 | 0.00 | 0.00 | 59 | 1013.0 |
| 20260831144641 | 91 | 180 | 4.0 | 7.0 | 0.00 | 0.00 | 0.00 | 56 | 1013.1 |
| 20260831144242 | 91 | 202 | 2.0 | 4.0 | 0.00 | 0.00 | 0.00 | 55 | 1013.2 |
| 20260831144050 | 91 | 90 | 4.0 | 7.0 | 0.00 | 0.00 | 0.00 | 55 | 1013.2 |
| 20260831143842 | 92 | 180 | 5.0 | 7.0 | 0.00 | 0.00 | 0.00 | 55 | 1013.3 |
| 20260831143641 | 92 | 180 | 5.0 | 8.0 | 0.00 | 0.00 | 0.00 | 55 | 1013.5 |
| 20260831143442 | 92 | 158 | 4.0 | 7.0 | 0.00 | 0.00 | 0.00 | 54 | 1013.3 |
| 20260831143242 | 92 | 180 | 6.0 | 8.0 | 0.00 | 0.00 | 0.00 | 53 | 1013.2 |
| 20260831143049 | 93 | 180 | 4.0 | 7.0 | 0.00 | 0.00 | 0.00 | 53 | 1013.3 |
| 20260831142841 | 93 | 202 | 5.0 | 8.0 | 0.00 | 0.00 | 0.00 | 52 | 1013.2 |
| 20260831142642 | 94 | 158 | 4.0 | 6.0 | 0.00 | 0.00 | 0.00 | 51 | 1012.9 |
| 20260831142443 | 94 | 135 | 4.0 | 7.0 | 0.00 | 0.00 | 0.00 | 51 | 1012.9 |
| 20260831142243 | 94 | 112 | 5.0 | 8.0 | 0.00 | 0.00 | 0.00 | 51 | 1013.0 |
| 20260831142047 | 94 | 90 | 4.0 | 6.0 | 0.00 | 0.00 | 0.00 | 51 | 1012.8 |
| 20260831141841 | 94 | 112 | 5.0 | 8.0 | 0.00 | 0.00 | 0.00 | 53 | 1012.8 |
| 20260831141643 | 94 | 180 | 5.0 | 8.0 | 0.00 | 0.00 | 0.00 | 52 | 1012.7 |
| 20260831141048 | 94 | 112 | 5.0 | 9.0 | 0.00 | 0.00 | 0.00 | 52 | 1012.7 |
| 20260831140842 | 93 | 158 | 4.0 | 7.0 | 0.00 | 0.00 | 0.00 | 53 | 1012.7 |
| 20260831140442 | 94 | 135 | 4.0 | 8.0 | 0.00 | 0.00 | 0.00 | 52 | 1012.6 |
| 20260831140242 | 95 | 112 | 4.0 | 9.0 | 0.00 | 0.00 | 0.00 | 52 | 1012.8 |
| 20260831140051 | 95 | 180 | 3.0 | 6.0 | 0.00 | 0.00 | 0.00 | 51 | 1012.6 |
| 20260831135841 | 94 | 135 | 3.0 | 6.0 | 0.00 | 0.00 | 0.00 | 51 | 1012.7 |
| 20260831135642 | 94 | 158 | 3.0 | 4.0 | 0.00 | 0.00 | 0.00 | 51 | 1012.8 |
| 20260831135443 | 94 | 135 | 7.0 | 8.0 | 0.00 | 0.00 | 0.00 | 52 | 1012.6 |
| 20260831135242 | 94 | 112 | 4.0 | 7.0 | 0.00 | 0.00 | 0.00 | 52 | 1012.5 |
| 20260831135044 | 93 | 135 | 5.0 | 8.0 | 0.00 | 0.00 | 0.00 | 52 | 1012.7 |
| 20260831134842 | 94 | 158 | 5.0 | 9.0 | 0.00 | 0.00 | 0.00 | 50 | 1012.5 |
| 20260831134642 | 94 | 135 | 5.0 | 8.0 | 0.00 | 0.00 | 0.00 | 51 | 1012.4 |
| 20260831134443 | 94 | 90 | 4.0 | 9.0 | 0.00 | 0.00 | 0.00 | 50 | 1012.4 |
| 20260831134243 | 93 | 135 | 7.0 | 9.0 | 0.00 | 0.00 | 0.00 | 52 | 1012.5 |
| 20260831134049 | 93 | 180 | 6.0 | 11.0 | 0.00 | 0.00 | 0.00 | 52 | 1012.7 |
| 20260831133845 | 93 | 180 | 4.0 | 8.0 | 0.00 | 0.00 | 0.00 | 53 | 1012.5 |
| 20260831133642 | 93 | 112 | 5.0 | 8.0 | 0.00 | 0.00 | 0.00 | 53 | 1012.5 |
| 20260831133242 | 93 | 112 | 8.0 | 9.0 | 0.00 | 0.00 | 0.00 | 54 | 1012.5 |
| 20260831133049 | 93 | 90 | 5.0 | 9.0 | 0.00 | 0.00 | 0.00 | 53 | 1012.4 |
| 20260831132842 | 94 | 135 | 4.0 | 6.0 | 0.00 | 0.00 | 0.00 | 52 | 1012.6 |
| 20260831132443 | 94 | 135 | 4.0 | 6.0 | 0.00 | 0.00 | 0.00 | 51 | 1012.9 |
| 20260831132242 | 95 | 158 | 4.0 | 7.0 | 0.00 | 0.00 | 0.00 | 51 | 1012.9 |
| 20260831131841 | 93 | 180 | 3.0 | 6.0 | 0.00 | 0.00 | 0.00 | 52 | 1012.6 |
| 20260831131643 | 93 | 202 | 6.0 | 11.0 | 0.00 | 0.00 | 0.00 | 52 | 1012.7 |
| 20260831131443 | 92 | 158 | 4.0 | 9.0 | 0.00 | 0.00 | 0.00 | 53 | 1012.8 |
| 20260831131245 | 92 | 158 | 4.0 | 7.0 | 0.00 | 0.00 | 0.00 | 54 | 1013.0 |
| 20260831131048 | 93 | 90 | 7.0 | 11.0 | 0.00 | 0.00 | 0.00 | 53 | 1013.1 |
| 20260831130643 | 93 | 112 | 4.0 | 8.0 | 0.00 | 0.00 | 0.00 | 52 | 1012.9 |
| 20260831130443 | 93 | 112 | 5.0 | 11.0 | 0.00 | 0.00 | 0.00 | 54 | 1012.9 |
| 20260831130242 | 93 | 202 | 5.0 | 8.0 | 0.00 | 0.00 | 0.00 | 54 | 1012.9 |
| 20260831130051 | 93 | 135 | 6.0 | 8.0 | 0.00 | 0.00 | 0.00 | 54 | 1013.0 |
| 20260831125842 | 93 | 248 | 5.0 | 9.0 | 0.00 | 0.00 | 0.00 | 53 | 1013.1 |
| 20260831125242 | 92 | 90 | 4.0 | 7.0 | 0.00 | 0.00 | 0.00 | 53 | 1013.2 |
| 20260831125046 | 92 | 112 | 5.0 | 8.0 | 0.00 | 0.00 | 0.00 | 54 | 1013.2 |
| 20260831124842 | 93 | 180 | 6.0 | 8.0 | 0.00 | 0.00 | 0.00 | 55 | 1013.1 |
| 20260831124443 | 91 | 202 | 7.0 | 11.0 | 0.00 | 0.00 | 0.00 | 54 | 1013.2 |
| 20260831124244 | 91 | 180 | 8.0 | 9.0 | 0.00 | 0.00 | 0.00 | 55 | 1013.1 |
| 20260831124050 | 92 | 158 | 8.0 | 14.0 | 0.00 | 0.00 | 0.00 | 54 | 1013.3 |
| 20260831123842 | 92 | 202 | 5.0 | 8.0 | 0.00 | 0.00 | 0.00 | 53 | 1013.3 |
| 20260831123642 | 92 | 135 | 4.0 | 9.0 | 0.00 | 0.00 | 0.00 | 53 | 1013.1 |
| 20260831123444 | 91 | 202 | 8.0 | 13.0 | 0.00 | 0.00 | 0.00 | 54 | 1013.4 |
| 20260831123049 | 92 | 90 | 7.0 | 11.0 | 0.00 | 0.00 | 0.00 | 55 | 1013.2 |
| 20260831122442 | 91 | 158 | 5.0 | 7.0 | 0.00 | 0.00 | 0.00 | 55 | 1013.3 |
| 20260831122244 | 91 | 112 | 7.0 | 11.0 | 0.00 | 0.00 | 0.00 | 56 | 1013.3 |
| 20260831122046 | 92 | 112 | 8.0 | 13.0 | 0.00 | 0.00 | 0.00 | 55 | 1013.3 |
| 20260831121843 | 92 | 90 | 8.0 | 14.0 | 0.00 | 0.00 | 0.00 | 54 | 1013.3 |
| 20260831121443 | 92 | 112 | 5.0 | 9.0 | 0.00 | 0.00 | 0.00 | 53 | 1013.1 |
| 20260831121243 | 92 | 158 | 4.0 | 8.0 | 0.00 | 0.00 | 0.00 | 54 | 1013.3 |
| 20260831121048 | 93 | 112 | 6.0 | 9.0 | 0.00 | 0.00 | 0.00 | 53 | 1013.1 |
| 20260831120843 | 93 | 135 | 4.0 | 6.0 | 0.00 | 0.00 | 0.00 | 54 | 1013.3 |
| 20260831120642 | 92 | 180 | 5.0 | 9.0 | 0.00 | 0.00 | 0.00 | 53 | 1013.3 |
| 20260831120443 | 92 | 112 | 4.0 | 7.0 | 0.00 | 0.00 | 0.00 | 54 | 1013.3 |
| 20260831120243 | 92 | 112 | 7.0 | 11.0 | 0.00 | 0.00 | 0.00 | 52 | 1013.2 |
| 20260831120049 | 92 | 180 | 8.0 | 11.0 | 0.00 | 0.00 | 0.00 | 53 | 1013.2 |
| 20260831115842 | 92 | 158 | 7.0 | 11.0 | 0.00 | 0.00 | 0.00 | 54 | 1013.3 |
| 20260831115643 | 92 | 112 | 7.0 | 9.0 | 0.00 | 0.00 | 0.00 | 53 | 1013.4 |
| 20260831115443 | 93 | 135 | 5.0 | 9.0 | 0.00 | 0.00 | 0.00 | 52 | 1013.4 |
| 20260831115243 | 93 | 158 | 7.0 | 8.0 | 0.00 | 0.00 | 0.00 | 54 | 1013.5 |
| 20260831115045 | 93 | 135 | 6.0 | 8.0 | 0.00 | 0.00 | 0.00 | 52 | 1013.3 |
| 20260831114843 | 93 | 202 | 6.0 | 11.0 | 0.00 | 0.00 | 0.00 | 52 | 1013.4 |
| 20260831114645 | 93 | 202 | 4.0 | 7.0 | 0.00 | 0.00 | 0.00 | 51 | 1013.4 |
| 20260831114443 | 93 | 180 | 4.0 | 8.0 | 0.00 | 0.00 | 0.00 | 52 | 1013.4 |
| 20260831114242 | 93 | 135 | 4.0 | 7.0 | 0.00 | 0.00 | 0.00 | 51 | 1013.5 |
| 20260831114050 | 92 | 180 | 4.0 | 8.0 | 0.00 | 0.00 | 0.00 | 52 | 1013.5 |
| 20260831113642 | 93 | 112 | 6.0 | 9.0 | 0.00 | 0.00 | 0.00 | 51 | 1013.5 |
| 20260831113443 | 93 | 270 | 5.0 | 8.0 | 0.00 | 0.00 | 0.00 | 53 | 1013.4 |
| 20260831113244 | 94 | 112 | 6.0 | 9.0 | 0.00 | 0.00 | 0.00 | 52 | 1013.4 |
| 20260831113051 | 94 | 202 | 5.0 | 8.0 | 0.00 | 0.00 | 0.00 | 53 | 1013.3 |
| 20260831112843 | 94 | 90 | 6.0 | 11.0 | 0.00 | 0.00 | 0.00 | 52 | 1013.4 |
| 20260831112444 | 95 | 135 | 6.0 | 11.0 | 0.00 | 0.00 | 0.00 | 50 | 1013.4 |
| 20260831112242 | 95 | 158 | 5.0 | 11.0 | 0.00 | 0.00 | 0.00 | 52 | 1013.2 |
| 20260831112047 | 95 | 225 | 6.0 | 11.0 | 0.00 | 0.00 | 0.00 | 52 | 1013.3 |
| 20260831111642 | 94 | 158 | 5.0 | 7.0 | 0.00 | 0.00 | 0.00 | 51 | 1013.3 |
| 20260831111243 | 95 | 135 | 6.0 | 8.0 | 0.00 | 0.00 | 0.00 | 52 | 1013.2 |
| 20260831111051 | 95 | 90 | 4.0 | 8.0 | 0.00 | 0.00 | 0.00 | 51 | 1013.4 |
| 20260831110842 | 95 | 180 | 4.0 | 4.0 | 0.00 | 0.00 | 0.00 | 50 | 1013.3 |
| 20260831110642 | 95 | 135 | 4.0 | 7.0 | 0.00 | 0.00 | 0.00 | 50 | 1013.4 |
| 20260831110444 | 94 | 180 | 4.0 | 8.0 | 0.00 | 0.00 | 0.00 | 51 | 1013.4 |
| 20260831110242 | 95 | 180 | 8.0 | 9.0 | 0.00 | 0.00 | 0.00 | 51 | 1013.3 |
| 20260831110052 | 95 | 180 | 5.0 | 9.0 | 0.00 | 0.00 | 0.00 | 51 | 1013.2 |
| 20260831105843 | 95 | 202 | 6.0 | 9.0 | 0.00 | 0.00 | 0.00 | 51 | 1013.3 |
| 20260831105642 | 95 | 135 | 4.0 | 7.0 | 0.00 | 0.00 | 0.00 | 51 | 1013.4 |
| 20260831105442 | 96 | 135 | 4.0 | 9.0 | 0.00 | 0.00 | 0.00 | 50 | 1013.3 |
| 20260831105048 | 95 | 158 | 3.0 | 4.0 | 0.00 | 0.00 | 0.00 | 50 | 1013.4 |
| 20260831104643 | 95 | 158 | 4.0 | 7.0 | 0.00 | 0.00 | 0.00 | 50 | 1013.4 |
| 20260831104444 | 95 | 180 | 7.0 | 9.0 | 0.00 | 0.00 | 0.00 | 51 | 1013.4 |
| 20260831104242 | 94 | 180 | 8.0 | 11.0 | 0.00 | 0.00 | 0.00 | 52 | 1013.3 |
| 20260831104049 | 94 | 135 | 3.0 | 4.0 | 0.00 | 0.00 | 0.00 | 52 | 1013.4 |
| 20260831103842 | 94 | 158 | 5.0 | 8.0 | 0.00 | 0.00 | 0.00 | 51 | 1013.4 |
| 20260831103442 | 95 | 112 | 4.0 | 7.0 | 0.00 | 0.00 | 0.00 | 51 | 1013.4 |
| 20260831103242 | 96 | 135 | 4.0 | 7.0 | 0.00 | 0.00 | 0.00 | 50 | 1013.3 |
| 20260831103049 | 95 | 112 | 2.0 | 4.0 | 0.00 | 0.00 | 0.00 | 50 | 1013.6 |
| 20260831102842 | 94 | 112 | 2.0 | 4.0 | 0.00 | 0.00 | 0.00 | 51 | 1013.7 |
| 20260831102641 | 94 | 180 | 4.0 | 9.0 | 0.00 | 0.00 | 0.00 | 50 | 1013.7 |
| 20260831102442 | 94 | 180 | 4.0 | 6.0 | 0.00 | 0.00 | 0.00 | 52 | 1013.6 |
| 20260831102242 | 94 | 180 | 4.0 | 7.0 | 0.00 | 0.00 | 0.00 | 52 | 1013.7 |
| 20260831102047 | 94 | 158 | 5.0 | 6.0 | 0.00 | 0.00 | 0.00 | 53 | 1013.6 |
| 20260831101843 | 94 | 158 | 6.0 | 8.0 | 0.00 | 0.00 | 0.00 | 53 | 1013.8 |
| 20260831101641 | 94 | 202 | 5.0 | 8.0 | 0.00 | 0.00 | 0.00 | 52 | 1013.7 |
| 20260831101443 | 92 | 158 | 2.0 | 4.0 | 0.00 | 0.00 | 0.00 | 53 | 1013.6 |
| 20260831101242 | 92 | 158 | 5.0 | 7.0 | 0.00 | 0.00 | 0.00 | 54 | 1013.8 |
| 20260831101049 | 94 | 112 | 5.0 | 8.0 | 0.00 | 0.00 | 0.00 | 53 | 1013.7 |
| 20260831100842 | 94 | 158 | 4.0 | 7.0 | 0.00 | 0.00 | 0.00 | 51 | 1013.8 |
| 20260831100644 | 94 | 112 | 4.0 | 7.0 | 0.00 | 0.00 | 0.00 | 52 | 1013.8 |
| 20260831100443 | 94 | 112 | 4.0 | 7.0 | 0.00 | 0.00 | 0.00 | 53 | 1013.8 |
| 20260831100242 | 94 | 135 | 3.0 | 7.0 | 0.00 | 0.00 | 0.00 | 52 | 1013.9 |
| 20260831100052 | 95 | 180 | 4.0 | 8.0 | 0.00 | 0.00 | 0.00 | 51 | 1013.8 |
| 20260831095842 | 94 | 112 | 5.0 | 7.0 | 0.00 | 0.00 | 0.00 | 51 | 1013.7 |
| 20260831095643 | 94 | 158 | 4.0 | 7.0 | 0.00 | 0.00 | 0.00 | 52 | 1013.8 |
| 20260831095242 | 95 | 158 | 4.0 | 9.0 | 0.00 | 0.00 | 0.00 | 52 | 1013.6 |
| 20260831095047 | 94 | 158 | 4.0 | 7.0 | 0.00 | 0.00 | 0.00 | 52 | 1013.8 |
| 20260831094842 | 94 | 202 | 4.0 | 6.0 | 0.00 | 0.00 | 0.00 | 52 | 1013.8 |
| 20260831094442 | 93 | 158 | 2.0 | 4.0 | 0.00 | 0.00 | 0.00 | 53 | 1013.6 |
| 20260831094049 | 95 | 135 | 3.0 | 4.0 | 0.00 | 0.00 | 0.00 | 52 | 1013.9 |
| 20260831093641 | 95 | 225 | 2.0 | 4.0 | 0.00 | 0.00 | 0.00 | 47 | 1014.0 |
| 20260831093441 | 95 | 315 | 2.0 | 2.0 | 0.00 | 0.00 | 0.00 | 47 | 1013.8 |
| 20260831093242 | 95 | 22 | 3.0 | 4.0 | 0.00 | 0.00 | 0.00 | 47 | 1013.9 |
| 20260831093049 | 96 | 22 | 2.0 | 4.0 | 0.00 | 0.00 | 0.00 | 46 | 1013.9 |
| 20260831092841 | 96 | 292 | 2.0 | 4.0 | 0.00 | 0.00 | 0.00 | 45 | 1013.9 |
| 20260831092642 | 95 | 270 | 2.0 | 4.0 | 0.00 | 0.00 | 0.00 | 47 | 1014.1 |
| 20260831092442 | 95 | 315 | 2.0 | 4.0 | 0.00 | 0.00 | 0.00 | 47 | 1013.8 |
| 20260831092046 | 94 | 270 | 0.0 | 2.0 | 0.00 | 0.00 | 0.00 | 47 | 1013.9 |
| 20260831091843 | 94 | 270 | 4.0 | 6.0 | 0.00 | 0.00 | 0.00 | 48 | 1014.1 |
| 20260831091642 | 94 | 270 | 0.0 | 2.0 | 0.00 | 0.00 | 0.00 | 48 | 1014.0 |
| 20260831091444 | 94 | 270 | 3.0 | 4.0 | 0.00 | 0.00 | 0.00 | 48 | 1014.0 |
| 20260831091241 | 94 | 270 | 3.0 | 6.0 | 0.00 | 0.00 | 0.00 | 49 | 1013.9 |
| 20260831091049 | 95 | 270 | 4.0 | 6.0 | 0.00 | 0.00 | 0.00 | 48 | 1014.1 |
| 20260831090642 | 95 | 248 | 1.0 | 4.0 | 0.00 | 0.00 | 0.00 | 45 | 1013.8 |
| 20260831090443 | 94 | 248 | 1.0 | 2.0 | 0.00 | 0.00 | 0.00 | 47 | 1014.1 |
| 20260831090051 | 94 | 292 | 4.0 | 4.0 | 0.00 | 0.00 | 0.00 | 49 | 1014.1 |
| 20260831085843 | 94 | 292 | 4.0 | 7.0 | 0.00 | 0.00 | 0.00 | 49 | 1014.1 |
| 20260831085643 | 95 | 292 | 3.0 | 6.0 | 0.00 | 0.00 | 0.00 | 49 | 1014.3 |
| 20260831084841 | 94 | 315 | 2.0 | 4.0 | 0.00 | 0.00 | 0.00 | 48 | 1014.3 |
| 20260831084642 | 94 | 315 | 1.0 | 2.0 | 0.00 | 0.00 | 0.00 | 49 | 1014.1 |
| 20260831084242 | 93 | 292 | 3.0 | 4.0 | 0.00 | 0.00 | 0.00 | 49 | 1014.1 |
| 20260831083842 | 94 | 292 | 3.0 | 6.0 | 0.00 | 0.00 | 0.00 | 49 | 1014.1 |
| 20260831083643 | 94 | 270 | 1.0 | 2.0 | 0.00 | 0.00 | 0.00 | 48 | 1014.1 |
| 20260831083444 | 94 | 270 | 1.0 | 2.0 | 0.00 | 0.00 | 0.00 | 48 | 1014.0 |
| 20260831083242 | 94 | 68 | 2.0 | 4.0 | 0.00 | 0.00 | 0.00 | 49 | 1014.1 |
| 20260831083049 | 94 | 0 | 2.0 | 4.0 | 0.00 | 0.00 | 0.00 | 50 | 1014.0 |
| 20260831082842 | 93 | 292 | 1.0 | 2.0 | 0.00 | 0.00 | 0.00 | 48 | 1014.2 |
| 20260831082641 | 94 | 315 | 2.0 | 4.0 | 0.00 | 0.00 | 0.00 | 50 | 1014.1 |
| 20260831082443 | 94 | 315 | 3.0 | 4.0 | 0.00 | 0.00 | 0.00 | 50 | 1014.1 |
| 20260831082242 | 93 | 315 | 0.0 | 2.0 | 0.00 | 0.00 | 0.00 | 49 | 1014.2 |
| 20260831081842 | 92 | 248 | 2.0 | 2.0 | 0.00 | 0.00 | 0.00 | 51 | 1014.2 |
| 20260831081642 | 92 | 292 | 1.0 | 2.0 | 0.00 | 0.00 | 0.00 | 51 | 1014.0 |
| 20260831081442 | 92 | 0 | 4.0 | 6.0 | 0.00 | 0.00 | 0.00 | 51 | 1013.9 |
| 20260831081241 | 92 | 292 | 0.0 | 2.0 | 0.00 | 0.00 | 0.00 | 51 | 1014.2 |
| 20260831081049 | 93 | 315 | 2.0 | 4.0 | 0.00 | 0.00 | 0.00 | 52 | 1014.0 |
| 20260831080844 | 93 | 315 | 2.0 | 6.0 | 0.00 | 0.00 | 0.00 | 50 | 1014.1 |
| 20260831080642 | 93 | 45 | 3.0 | 4.0 | 0.00 | 0.00 | 0.00 | 51 | 1014.1 |
| 20260831080443 | 92 | 68 | 2.0 | 2.0 | 0.00 | 0.00 | 0.00 | 51 | 1014.2 |
| 20260831080243 | 91 | 112 | 1.0 | 2.0 | 0.00 | 0.00 | 0.00 | 52 | 1014.2 |
| 20260831075443 | 91 | 292 | 3.0 | 4.0 | 0.00 | 0.00 | 0.00 | 53 | 1014.0 |
| 20260831075242 | 91 | 292 | 2.0 | 4.0 | 0.00 | 0.00 | 0.00 | 54 | 1014.0 |
| 20260831075047 | 91 | 270 | 4.0 | 6.0 | 0.00 | 0.00 | 0.00 | 54 | 1014.0 |
| 20260831074841 | 90 | 292 | 2.0 | 4.0 | 0.00 | 0.00 | 0.00 | 54 | 1014.1 |
| 20260831074641 | 90 | 315 | 3.0 | 4.0 | 0.00 | 0.00 | 0.00 | 54 | 1013.9 |
| 20260831074443 | 90 | 338 | 2.0 | 2.0 | 0.00 | 0.00 | 0.00 | 55 | 1014.0 |
| 20260831074242 | 91 | 315 | 4.0 | 7.0 | 0.00 | 0.00 | 0.00 | 54 | 1014.0 |
| 20260831074050 | 91 | 292 | 2.0 | 4.0 | 0.00 | 0.00 | 0.00 | 55 | 1013.9 |
| 20260831073841 | 90 | 292 | 3.0 | 6.0 | 0.00 | 0.00 | 0.00 | 55 | 1014.0 |
| 20260831073642 | 90 | 292 | 2.0 | 4.0 | 0.00 | 0.00 | 0.00 | 55 | 1013.8 |
| 20260831073443 | 90 | 270 | 3.0 | 4.0 | 0.00 | 0.00 | 0.00 | 55 | 1014.0 |
| 20260831073243 | 90 | 292 | 1.0 | 2.0 | 0.00 | 0.00 | 0.00 | 55 | 1013.9 |
| 20260831073050 | 90 | 292 | 4.0 | 6.0 | 0.00 | 0.00 | 0.00 | 55 | 1014.0 |
| 20260831072843 | 90 | 292 | 2.0 | 4.0 | 0.00 | 0.00 | 0.00 | 55 | 1013.9 |
| 20260831072641 | 90 | 292 | 2.0 | 2.0 | 0.00 | 0.00 | 0.00 | 55 | 1014.0 |
| 20260831072443 | 89 | 292 | 0.0 | 2.0 | 0.00 | 0.00 | 0.00 | 56 | 1014.0 |
| 20260831072242 | 90 | 270 | 3.0 | 4.0 | 0.00 | 0.00 | 0.00 | 56 | 1013.9 |
| 20260831072047 | 90 | 0 | 1.0 | 2.0 | 0.00 | 0.00 | 0.00 | 57 | 1013.8 |
| 20260831071843 | 89 | 0 | 2.0 | 2.0 | 0.00 | 0.00 | 0.00 | 57 | 1014.0 |
| 20260831071643 | 89 | 338 | 2.0 | 2.0 | 0.00 | 0.00 | 0.00 | 57 | 1013.8 |
| 20260831071443 | 89 | 292 | 2.0 | 4.0 | 0.00 | 0.00 | 0.00 | 58 | 1013.8 |
| 20260831071243 | 89 | 292 | 2.0 | 4.0 | 0.00 | 0.00 | 0.00 | 57 | 1013.8 |
| 20260831071049 | 89 | 338 | 2.0 | 2.0 | 0.00 | 0.00 | 0.00 | 59 | 1014.2 |
| 20260831070643 | 89 | 270 | 1.0 | 2.0 | 0.00 | 0.00 | 0.00 | 58 | 1013.8 |
| 20260831070443 | 89 | 292 | 2.0 | 2.0 | 0.00 | 0.00 | 0.00 | 58 | 1014.0 |
| 20260831070241 | 89 | 0 | 2.0 | 2.0 | 0.00 | 0.00 | 0.00 | 58 | 1014.0 |
| 20260831070052 | 89 | 45 | 0.0 | 2.0 | 0.00 | 0.00 | 0.00 | 59 | 1014.0 |
| 20260831065842 | 89 | 292 | 2.0 | 4.0 | 0.00 | 0.00 | 0.00 | 58 | 1013.9 |
| 20260831065643 | 88 | 22 | 1.0 | 2.0 | 0.00 | 0.00 | 0.00 | 58 | 1014.0 |
| 20260831065242 | 88 | 0 | 2.0 | 4.0 | 0.00 | 0.00 | 0.00 | 59 | 1014.0 |
| 20260831065047 | 87 | 292 | 1.0 | 2.0 | 0.00 | 0.00 | 0.00 | 60 | 1014.0 |
| 20260831064444 | 88 | 292 | 2.0 | 2.0 | 0.00 | 0.00 | 0.00 | 60 | 1014.1 |
| 20260831064243 | 87 | 315 | 2.0 | 2.0 | 0.00 | 0.00 | 0.00 | 60 | 1014.3 |
| 20260831064050 | 87 | 292 | 2.0 | 4.0 | 0.00 | 0.00 | 0.00 | 60 | 1014.2 |
| 20260831063844 | 87 | 315 | 2.0 | 2.0 | 0.00 | 0.00 | 0.00 | 60 | 1014.1 |
| 20260831063641 | 87 | 338 | 1.0 | 2.0 | 0.00 | 0.00 | 0.00 | 60 | 1014.2 |
| 20260831063241 | 86 | 0 | 1.0 | 2.0 | 0.00 | 0.00 | 0.00 | 61 | 1014.2 |
| 20260831063049 | 86 | 315 | 2.0 | 2.0 | 0.00 | 0.00 | 0.00 | 62 | 1014.1 |
| 20260831062843 | 86 | 292 | 3.0 | 6.0 | 0.00 | 0.00 | 0.00 | 62 | 1014.1 |
| 20260831062642 | 85 | 315 | 2.0 | 4.0 | 0.00 | 0.00 | 0.00 | 63 | 1014.2 |
| 20260831062443 | 85 | 292 | 4.0 | 6.0 | 0.00 | 0.00 | 0.00 | 63 | 1014.2 |
| 20260831062046 | 85 | 270 | 2.0 | 4.0 | 0.00 | 0.00 | 0.00 | 63 | 1014.2 |
| 20260831061843 | 85 | 315 | 2.0 | 4.0 | 0.00 | 0.00 | 0.00 | 63 | 1014.4 |
| 20260831061641 | 85 | 292 | 1.0 | 2.0 | 0.00 | 0.00 | 0.00 | 64 | 1014.2 |
| 20260831061050 | 85 | 158 | 1.0 | 2.0 | 0.00 | 0.00 | 0.00 | 62 | 1014.3 |
| 20260831060842 | 85 | 270 | 0.0 | 0.0 | 0.00 | 0.00 | 0.00 | 62 | 1014.2 |
| 20260831060641 | 85 | 90 | 0.0 | 0.0 | 0.00 | 0.00 | 0.00 | 62 | 1014.2 |
| 20260831060443 | 85 | 112 | 0.0 | 0.0 | 0.00 | 0.00 | 0.00 | 62 | 1014.3 |
| 20260831060243 | 84 | 270 | 0.0 | 0.0 | 0.00 | 0.00 | 0.00 | 63 | 1014.2 |
| 20260831060052 | 84 | 248 | 0.0 | 0.0 | 0.00 | 0.00 | 0.00 | 64 | 1014.3 |
| 20260831055843 | 84 | 248 | 0.0 | 0.0 | 0.00 | 0.00 | 0.00 | 64 | 1014.4 |
| 20260831055643 | 84 | 135 | 1.0 | 2.0 | 0.00 | 0.00 | 0.00 | 65 | 1014.3 |
| 20260831055442 | 83 | 45 | 0.0 | 0.0 | 0.00 | 0.00 | 0.00 | 65 | 1014.2 |
| 20260831055242 | 83 | 90 | 0.0 | 2.0 | 0.00 | 0.00 | 0.00 | 65 | 1014.4 |
| 20260831055046 | 83 | 225 | 0.0 | 2.0 | 0.00 | 0.00 | 0.00 | 66 | 1014.3 |
| 20260831054843 | 82 | 158 | 1.0 | 2.0 | 0.00 | 0.00 | 0.00 | 66 | 1014.3 |
| 20260831054643 | 82 | 68 | 1.0 | 2.0 | 0.00 | 0.00 | 0.00 | 68 | 1014.2 |
| 20260831054441 | 82 | 112 | 1.0 | 2.0 | 0.00 | 0.00 | 0.00 | 68 | 1014.3 |
| 20260831053842 | 81 | 248 | 0.0 | 2.0 | 0.00 | 0.00 | 0.00 | 69 | 1014.3 |
| 20260831053643 | 81 | 135 | 1.0 | 2.0 | 0.00 | 0.00 | 0.00 | 69 | 1014.2 |
| 20260831053443 | 81 | 202 | 0.0 | 2.0 | 0.00 | 0.00 | 0.00 | 69 | 1014.3 |
| 20260831053241 | 81 | 248 | 0.0 | 0.0 | 0.00 | 0.00 | 0.00 | 69 | 1014.3 |
| 20260831053050 | 81 | 248 | 1.0 | 2.0 | 0.00 | 0.00 | 0.00 | 69 | 1014.3 |
| 20260831052842 | 80 | 270 | 0.0 | 0.0 | 0.00 | 0.00 | 0.00 | 70 | 1014.2 |
| 20260831052649 | 80 | 292 | 1.0 | 2.0 | 0.00 | 0.00 | 0.00 | 70 | 1014.0 |
| 20260831052443 | 80 | 292 | 0.0 | 2.0 | 0.00 | 0.00 | 0.00 | 71 | 1013.9 |
| 20260831052241 | 80 | 292 | 0.0 | 0.0 | 0.00 | 0.00 | 0.00 | 71 | 1014.3 |
| 20260831052047 | 80 | 338 | 0.0 | 2.0 | 0.00 | 0.00 | 0.00 | 71 | 1014.1 |
| 20260831051843 | 80 | 315 | 0.0 | 2.0 | 0.00 | 0.00 | 0.00 | 72 | 1014.0 |
| 20260831051642 | 79 | 315 | 0.0 | 2.0 | 0.00 | 0.00 | 0.00 | 72 | 1014.1 |
| 20260831051442 | 79 | 292 | 0.0 | 2.0 | 0.00 | 0.00 | 0.00 | 73 | 1014.1 |
| 20260831051242 | 79 | 315 | 0.0 | 2.0 | 0.00 | 0.00 | 0.00 | 73 | 1014.2 |
| 20260831051047 | 79 | 292 | 1.0 | 2.0 | 0.00 | 0.00 | 0.00 | 73 | 1014.0 |
| 20260831050842 | 78 | 292 | 1.0 | 2.0 | 0.00 | 0.00 | 0.00 | 73 | 1014.1 |
| 20260831050642 | 78 | 315 | 0.0 | 2.0 | 0.00 | 0.00 | 0.00 | 73 | 1014.1 |
| 20260831050442 | 78 | 315 | 0.0 | 0.0 | 0.00 | 0.00 | 0.00 | 74 | 1014.0 |
| 20260831050112 | 78 | 338 | 0.0 | 0.0 | 0.00 | 0.00 | 0.00 | 74 | 1014.0 |
| 20260831045844 | 78 | 292 | 0.0 | 2.0 | 0.00 | 0.00 | 0.00 | 74 | 1013.9 |
| 20260831045642 | 77 | 292 | 1.0 | 2.0 | 0.00 | 0.00 | 0.00 | 74 | 1013.8 |
| 20260831045443 | 77 | 292 | 1.0 | 2.0 | 0.00 | 0.00 | 0.00 | 74 | 1014.0 |
| 20260831045243 | 77 | 315 | 1.0 | 2.0 | 0.00 | 0.00 | 0.00 | 74 | 1014.1 |
| 20260831045047 | 77 | 315 | 0.0 | 2.0 | 0.00 | 0.00 | 0.00 | 74 | 1014.0 |
| 20260831044841 | 77 | 315 | 0.0 | 2.0 | 0.00 | 0.00 | 0.00 | 74 | 1014.0 |
| 20260831044641 | 77 | 315 | 1.0 | 2.0 | 0.00 | 0.00 | 0.00 | 74 | 1014.2 |
| 20260831044443 | 77 | 315 | 1.0 | 2.0 | 0.00 | 0.00 | 0.00 | 74 | 1014.2 |
| 20260831044243 | 77 | 292 | 1.0 | 2.0 | 0.00 | 0.00 | 0.00 | 75 | 1013.9 |
| 20260831044053 | 77 | 315 | 2.0 | 2.0 | 0.00 | 0.00 | 0.00 | 75 | 1013.8 |
| 20260831043842 | 77 | 292 | 2.0 | 2.0 | 0.00 | 0.00 | 0.00 | 75 | 1013.8 |
| 20260831043642 | 77 | 315 | 2.0 | 2.0 | 0.00 | 0.00 | 0.00 | 75 | 1013.9 |
| 20260831043444 | 77 | 315 | 2.0 | 2.0 | 0.00 | 0.00 | 0.00 | 75 | 1013.9 |
| 20260831043243 | 77 | 292 | 1.0 | 2.0 | 0.00 | 0.00 | 0.00 | 75 | 1014.0 |
| 20260831042841 | 77 | 315 | 2.0 | 2.0 | 0.00 | 0.00 | 0.00 | 74 | 1014.0 |
| 20260831042643 | 77 | 315 | 2.0 | 4.0 | 0.00 | 0.00 | 0.00 | 75 | 1013.9 |
| 20260831042443 | 77 | 292 | 1.0 | 2.0 | 0.00 | 0.00 | 0.00 | 74 | 1013.8 |
| 20260831042242 | 77 | 315 | 1.0 | 2.0 | 0.00 | 0.00 | 0.00 | 74 | 1013.9 |
| 20260831042047 | 77 | 315 | 1.0 | 2.0 | 0.00 | 0.00 | 0.00 | 74 | 1014.0 |
| 20260831041841 | 77 | 315 | 2.0 | 4.0 | 0.00 | 0.00 | 0.00 | 74 | 1013.8 |
| 20260831041642 | 76 | 315 | 2.0 | 4.0 | 0.00 | 0.00 | 0.00 | 74 | 1013.9 |
| 20260831041442 | 76 | 315 | 2.0 | 2.0 | 0.00 | 0.00 | 0.00 | 75 | 1013.8 |
| 20260831040842 | 76 | 292 | 2.0 | 2.0 | 0.00 | 0.00 | 0.00 | 75 | 1013.9 |
| 20260831040643 | 76 | 315 | 2.0 | 2.0 | 0.00 | 0.00 | 0.00 | 75 | 1013.8 |
| 20260831040443 | 76 | 292 | 2.0 | 2.0 | 0.00 | 0.00 | 0.00 | 75 | 1013.7 |
| 20260831040241 | 76 | 292 | 2.0 | 4.0 | 0.00 | 0.00 | 0.00 | 76 | 1013.7 |
| 20260831035843 | 76 | 292 | 2.0 | 2.0 | 0.00 | 0.00 | 0.00 | 76 | 1013.7 |
| 20260831035641 | 76 | 292 | 1.0 | 2.0 | 0.00 | 0.00 | 0.00 | 76 | 1013.6 |
| 20260831035443 | 75 | 292 | 1.0 | 2.0 | 0.00 | 0.00 | 0.00 | 77 | 1013.6 |
| 20260831035243 | 75 | 292 | 1.0 | 2.0 | 0.00 | 0.00 | 0.00 | 77 | 1013.8 |
| 20260831035047 | 76 | 292 | 1.0 | 2.0 | 0.00 | 0.00 | 0.00 | 77 | 1013.5 |
| 20260831034841 | 76 | 292 | 0.0 | 2.0 | 0.00 | 0.00 | 0.00 | 77 | 1013.7 |
| 20260831034643 | 76 | 315 | 1.0 | 2.0 | 0.00 | 0.00 | 0.00 | 77 | 1013.7 |
| 20260831034443 | 76 | 315 | 0.0 | 0.0 | 0.00 | 0.00 | 0.00 | 77 | 1013.5 |
| 20260831034056 | 76 | 292 | 1.0 | 2.0 | 0.00 | 0.00 | 0.00 | 76 | 1013.7 |
| 20260831033840 | 76 | 315 | 1.0 | 2.0 | 0.00 | 0.00 | 0.00 | 76 | 1013.8 |
| 20260831033444 | 76 | 292 | 0.0 | 0.0 | 0.00 | 0.00 | 0.00 | 75 | 1013.7 |
| 20260831033241 | 76 | 292 | 0.0 | 0.0 | 0.00 | 0.00 | 0.00 | 75 | 1013.7 |
| 20260831033058 | 76 | 292 | 0.0 | 0.0 | 0.00 | 0.00 | 0.00 | 75 | 1013.8 |
| 20260831032641 | 76 | 292 | 0.0 | 0.0 | 0.00 | 0.00 | 0.00 | 75 | 1013.7 |
| 20260831032243 | 76 | 292 | 0.0 | 0.0 | 0.00 | 0.00 | 0.00 | 75 | 1013.5 |
| 20260831032048 | 76 | 315 | 2.0 | 2.0 | 0.00 | 0.00 | 0.00 | 76 | 1013.7 |
| 20260831031843 | 76 | 315 | 0.0 | 2.0 | 0.00 | 0.00 | 0.00 | 76 | 1013.8 |
| 20260831031642 | 76 | 292 | 0.0 | 0.0 | 0.00 | 0.00 | 0.00 | 76 | 1013.7 |
| 20260831031442 | 76 | 292 | 0.0 | 2.0 | 0.00 | 0.00 | 0.00 | 76 | 1013.9 |
| 20260831031242 | 76 | 292 | 1.0 | 2.0 | 0.00 | 0.00 | 0.00 | 76 | 1013.8 |
| 20260831030843 | 76 | 292 | 0.0 | 0.0 | 0.00 | 0.00 | 0.00 | 76 | 1013.7 |
| 20260831030641 | 76 | 292 | 0.0 | 0.0 | 0.00 | 0.00 | 0.00 | 76 | 1013.9 |
| 20260831030242 | 76 | 292 | 0.0 | 0.0 | 0.00 | 0.00 | 0.00 | 76 | 1013.8 |
| 20260831030051 | 76 | 292 | 0.0 | 0.0 | 0.00 | 0.00 | 0.00 | 76 | 1013.8 |
| 20260831025642 | 76 | 270 | 0.0 | 0.0 | 0.00 | 0.00 | 0.00 | 76 | 1013.8 |
| 20260831025442 | 76 | 270 | 0.0 | 0.0 | 0.00 | 0.00 | 0.00 | 75 | 1013.8 |
| 20260831025243 | 76 | 270 | 0.0 | 0.0 | 0.00 | 0.00 | 0.00 | 75 | 1013.8 |
| 20260831025047 | 76 | 270 | 1.0 | 2.0 | 0.00 | 0.00 | 0.00 | 75 | 1013.7 |
| 20260831024050 | 76 | 292 | 1.0 | 2.0 | 0.00 | 0.00 | 0.00 | 76 | 1013.7 |
| 20260831023842 | 76 | 292 | 0.0 | 0.0 | 0.00 | 0.00 | 0.00 | 76 | 1013.8 |
| 20260831023641 | 76 | 292 | 0.0 | 0.0 | 0.00 | 0.00 | 0.00 | 76 | 1013.6 |
| 20260831023242 | 76 | 292 | 0.0 | 0.0 | 0.00 | 0.00 | 0.00 | 76 | 1013.7 |
| 20260831022842 | 77 | 292 | 0.0 | 0.0 | 0.00 | 0.00 | 0.00 | 76 | 1013.8 |
| 20260831022643 | 77 | 292 | 0.0 | 0.0 | 0.00 | 0.00 | 0.00 | 75 | 1013.8 |
| 20260831022443 | 77 | 292 | 0.0 | 0.0 | 0.00 | 0.00 | 0.00 | 75 | 1013.8 |
| 20260831022241 | 77 | 315 | 0.0 | 0.0 | 0.00 | 0.00 | 0.00 | 75 | 1013.9 |
| 20260831022047 | 77 | 315 | 0.0 | 0.0 | 0.00 | 0.00 | 0.00 | 75 | 1013.9 |
| 20260831021843 | 77 | 315 | 0.0 | 0.0 | 0.00 | 0.00 | 0.00 | 75 | 1013.8 |
| 20260831021642 | 77 | 338 | 0.0 | 2.0 | 0.00 | 0.00 | 0.00 | 75 | 1013.8 |
| 20260831021443 | 77 | 0 | 1.0 | 2.0 | 0.00 | 0.00 | 0.00 | 75 | 1013.9 |
| 20260831021053 | 77 | 22 | 0.0 | 0.0 | 0.00 | 0.00 | 0.00 | 75 | 1013.7 |
| 20260831020844 | 77 | 315 | 0.0 | 0.0 | 0.00 | 0.00 | 0.00 | 75 | 1013.7 |
| 20260831020642 | 77 | 338 | 0.0 | 0.0 | 0.00 | 0.00 | 0.00 | 75 | 1013.8 |
| 20260831020444 | 77 | 315 | 0.0 | 0.0 | 0.00 | 0.00 | 0.00 | 75 | 1013.6 |
| 20260831020243 | 77 | 315 | 0.0 | 0.0 | 0.00 | 0.00 | 0.00 | 75 | 1013.7 |
| 20260831020055 | 77 | 315 | 0.0 | 0.0 | 0.00 | 0.00 | 0.00 | 75 | 1013.9 |
| 20260831015842 | 77 | 315 | 0.0 | 2.0 | 0.00 | 0.00 | 0.00 | 75 | 1013.6 |
| 20260831015644 | 77 | 315 | 1.0 | 2.0 | 0.00 | 0.00 | 0.00 | 75 | 1013.6 |
| 20260831015241 | 77 | 338 | 0.0 | 2.0 | 0.00 | 0.00 | 0.00 | 74 | 1013.7 |
| 20260831014842 | 77 | 338 | 0.0 | 0.0 | 0.00 | 0.00 | 0.00 | 74 | 1013.7 |
| 20260831014641 | 77 | 338 | 0.0 | 0.0 | 0.00 | 0.00 | 0.00 | 74 | 1013.6 |
| 20260831014241 | 77 | 315 | 0.0 | 0.0 | 0.00 | 0.00 | 0.00 | 73 | 1013.8 |
| 20260831014049 | 78 | 0 | 1.0 | 2.0 | 0.00 | 0.00 | 0.00 | 73 | 1013.7 |
| 20260831013642 | 78 | 338 | 0.0 | 0.0 | 0.00 | 0.00 | 0.00 | 73 | 1013.7 |
| 20260831013442 | 78 | 315 | 0.0 | 0.0 | 0.00 | 0.00 | 0.00 | 73 | 1013.6 |
| 20260831013050 | 78 | 0 | 0.0 | 0.0 | 0.00 | 0.00 | 0.00 | 72 | 1013.8 |
| 20260831012642 | 78 | 0 | 0.0 | 0.0 | 0.00 | 0.00 | 0.00 | 72 | 1013.5 |
| 20260831012442 | 78 | 315 | 0.0 | 0.0 | 0.00 | 0.00 | 0.00 | 72 | 1013.7 |
| 20260831012241 | 78 | 315 | 0.0 | 0.0 | 0.00 | 0.00 | 0.00 | 72 | 1013.5 |
| 20260831012046 | 78 | 315 | 0.0 | 0.0 | 0.00 | 0.00 | 0.00 | 72 | 1013.6 |
| 20260831011843 | 78 | 315 | 0.0 | 0.0 | 0.00 | 0.00 | 0.00 | 72 | 1013.5 |
| 20260831011643 | 78 | 0 | 0.0 | 0.0 | 0.00 | 0.00 | 0.00 | 72 | 1013.5 |
| 20260831011442 | 78 | 315 | 0.0 | 0.0 | 0.00 | 0.00 | 0.00 | 71 | 1013.3 |
| 20260831011243 | 78 | 0 | 0.0 | 0.0 | 0.00 | 0.00 | 0.00 | 71 | 1013.4 |
| 20260831011052 | 78 | 0 | 0.0 | 0.0 | 0.00 | 0.00 | 0.00 | 71 | 1013.5 |
| 20260831010841 | 79 | 315 | 1.0 | 2.0 | 0.00 | 0.00 | 0.00 | 71 | 1013.7 |
| 20260831010444 | 79 | 338 | 0.0 | 2.0 | 0.00 | 0.00 | 0.00 | 70 | 1013.3 |
| 20260831010242 | 79 | 315 | 0.0 | 2.0 | 0.00 | 0.00 | 0.00 | 69 | 1013.5 |
| 20260831010050 | 79 | 315 | 0.0 | 0.0 | 0.00 | 0.00 | 0.00 | 69 | 1013.5 |
| 20260831005842 | 79 | 315 | 0.0 | 0.0 | 0.00 | 0.00 | 0.00 | 69 | 1013.4 |
| 20260831005643 | 80 | 315 | 0.0 | 0.0 | 0.00 | 0.00 | 0.00 | 69 | 1013.6 |
| 20260831005240 | 80 | 338 | 0.0 | 0.0 | 0.00 | 0.00 | 0.00 | 68 | 1013.4 |
| 20260831005046 | 80 | 248 | 0.0 | 0.0 | 0.00 | 0.00 | 0.00 | 68 | 1013.3 |
| 20260831004641 | 80 | 248 | 0.0 | 0.0 | 0.00 | 0.00 | 0.00 | 67 | 1013.3 |
| 20260831004443 | 80 | 248 | 0.0 | 0.0 | 0.00 | 0.00 | 0.00 | 67 | 1013.4 |
| 20260831004242 | 80 | 248 | 0.0 | 0.0 | 0.00 | 0.00 | 0.00 | 67 | 1013.3 |
| 20260831004051 | 80 | 270 | 0.0 | 0.0 | 0.00 | 0.00 | 0.00 | 67 | 1013.3 |
| 20260831003843 | 80 | 270 | 0.0 | 0.0 | 0.00 | 0.00 | 0.00 | 66 | 1013.3 |
| 20260831003641 | 80 | 270 | 0.0 | 0.0 | 0.00 | 0.00 | 0.00 | 67 | 1013.3 |
| 20260831003444 | 80 | 292 | 0.0 | 0.0 | 0.00 | 0.00 | 0.00 | 67 | 1013.4 |
| 20260831003243 | 80 | 270 | 1.0 | 2.0 | 0.00 | 0.00 | 0.00 | 67 | 1013.2 |
| 20260831003052 | 80 | 292 | 0.0 | 0.0 | 0.00 | 0.00 | 0.00 | 66 | 1013.1 |
| 20260831002441 | 80 | 315 | 0.0 | 0.0 | 0.00 | 0.00 | 0.00 | 67 | 1013.2 |
| 20260831002242 | 80 | 338 | 0.0 | 2.0 | 0.00 | 0.00 | 0.00 | 68 | 1013.1 |
| 20260831001442 | 80 | 22 | 0.0 | 0.0 | 0.00 | 0.00 | 0.00 | 68 | 1013.3 |
| 20260831001243 | 80 | 22 | 0.0 | 0.0 | 0.00 | 0.00 | 0.00 | 68 | 1013.2 |
| 20260831001052 | 80 | 90 | 1.0 | 2.0 | 0.00 | 0.00 | 0.00 | 68 | 1013.2 |
| 20260831000841 | 80 | 45 | 2.0 | 2.0 | 0.00 | 0.00 | 0.00 | 67 | 1013.3 |
| 20260831000642 | 80 | 45 | 2.0 | 2.0 | 0.00 | 0.00 | 0.00 | 67 | 1013.3 |
| 20260831000444 | 80 | 45 | 2.0 | 2.0 | 0.00 | 0.00 | 0.00 | 67 | 1013.2 |
| 20260831000053 | 80 | 90 | 2.0 | 2.0 | 0.00 | 0.00 | 0.00 | 67 | 1013.3 |
| 20260830235842 | 80 | 68 | 1.0 | 2.0 | 0.00 | 0.00 | 0.00 | 67 | 1013.2 |
| 20260830235642 | 80 | 68 | 1.0 | 2.0 | 0.00 | 0.00 | 0.00 | 67 | 1013.2 |
| 20260830235443 | 80 | 90 | 1.0 | 2.0 | 0.00 | 0.00 | 0.00 | 67 | 1013.3 |
| 20260830235241 | 80 | 68 | 2.0 | 2.0 | 0.00 | 0.00 | 0.00 | 67 | 1013.2 |
| 20260830235047 | 80 | 68 | 2.0 | 2.0 | 0.00 | 0.00 | 0.00 | 67 | 1013.3 |
| 20260830234841 | 80 | 68 | 1.0 | 2.0 | 0.00 | 0.00 | 0.00 | 67 | 1013.4 |
| 20260830234243 | 80 | 90 | 0.0 | 0.0 | 0.00 | 0.00 | 0.00 | 66 | 1013.2 |
| 20260830234051 | 81 | 68 | 0.0 | 0.0 | 0.00 | 0.00 | 0.00 | 66 | 1013.1 |
| 20260830233641 | 81 | 0 | 0.0 | 0.0 | 0.00 | 0.00 | 0.00 | 65 | 1013.1 |
| 20260830233444 | 81 | 0 | 0.0 | 0.0 | 0.00 | 0.00 | 0.00 | 65 | 1013.3 |
| 20260830233242 | 81 | 292 | 0.0 | 0.0 | 0.00 | 0.00 | 0.00 | 64 | 1013.0 |
| 20260830233049 | 81 | 292 | 0.0 | 0.0 | 0.00 | 0.00 | 0.00 | 64 | 1013.3 |
| 20260830232842 | 81 | 315 | 0.0 | 0.0 | 0.00 | 0.00 | 0.00 | 64 | 1013.2 |
| 20260830232643 | 81 | 315 | 1.0 | 2.0 | 0.00 | 0.00 | 0.00 | 64 | 1013.1 |
| 20260830232446 | 81 | 315 | 0.0 | 2.0 | 0.00 | 0.00 | 0.00 | 64 | 1013.3 |
| 20260830231842 | 82 | 292 | 0.0 | 0.0 | 0.00 | 0.00 | 0.00 | 64 | 1013.1 |
| 20260830231642 | 82 | 315 | 1.0 | 2.0 | 0.00 | 0.00 | 0.00 | 63 | 1013.2 |
| 20260830231442 | 82 | 315 | 2.0 | 2.0 | 0.00 | 0.00 | 0.00 | 63 | 1013.3 |
| 20260830231048 | 82 | 315 | 1.0 | 2.0 | 0.00 | 0.00 | 0.00 | 63 | 1013.1 |
| 20260830230841 | 82 | 315 | 2.0 | 2.0 | 0.00 | 0.00 | 0.00 | 63 | 1013.0 |
| 20260830230642 | 82 | 292 | 2.0 | 2.0 | 0.00 | 0.00 | 0.00 | 63 | 1013.2 |
| 20260830230444 | 82 | 292 | 2.0 | 2.0 | 0.00 | 0.00 | 0.00 | 62 | 1013.0 |